Flag for Chile Weather past 2 weeks in Osorno, Chile

Now
48 °F

Overcast.


Feels Like: 48 °F
Forecast: 34 / 66 °F
Wind: 2 mph from West

Location: Puerto Montt Airport

Current Time: Dec 21, 2014 at 10:41:12 PM

Latest Report: Dec 21, 2014 at 10:00 PM


Visibility: N/A

Pressure: 30.27 "Hg

Humidity: 94%

Dew point: 46 °F

Location of OsornoLocation

Historic Weather in Osorno — Graph

°F

Osorno temperature yesterday

Maximum temperature yesterday: 55 °F (at 4:00 PM)
Minimum temperature yesterday: 39 °F (at 3:00 AM)
Average temperature yesterday: 46 °F

Past Weeks' High & Low Weather Summary

 TemperatureHumidityPressure
High73 °F (Dec 14, 2:00 PM)100% (Dec 8, 5:00 AM)30.27 "Hg (Dec 8, 5:00 AM)
Low39 °F (Dec 20, 3:00 AM)42% (Dec 10, 5:00 PM)29.71 "Hg (Dec 19, 6:00 AM)
Average54 °F75%30.08 "Hg
* Reported Dec 6 9:00 PM — Dec 21 9:00 PM, Osorno, Weather by CustomWeather, © 2014

Note: Actual official high and low records may vary slightly from our data, if they occured in-between our weather recording intervals... More about our weather records

Advertising

Osorno weather history for previous 24 hours

 ConditionsComfort  
Time TempWeatherWind HumidityBarometerVisibility
9:00 PM
Dec 21
48 °FPartly sunny.No wind94%30.27 "HgN/A
7:00 PM50 °FRain showers. Overcast.2 mph88%30.24 "Hg4 mi
6:00 PM50 °FRain showers. Overcast.8 mph88%30.24 "HgN/A
5:00 PM55 °FOvercast.10 mph63%30.24 "HgN/A
4:00 PM54 °FPartly sunny.6 mph63%30.24 "HgN/A
3:00 PM55 °FPartly sunny.9 mph51%30.21 "HgN/A
2:00 PM57 °FBroken clouds.13 mph48%30.24 "HgN/A
1:00 PM55 °FPartly sunny.15 mph51%30.24 "HgN/A
12:00 PM54 °FPartly sunny.14 mph58%30.21 "HgN/A
11:00 AM54 °FPartly sunny.9 mph58%30.21 "HgN/A
10:00 AM52 °FScattered clouds.12 mph62%30.21 "HgN/A
9:00 AM48 °FScattered clouds.7 mph82%30.24 "HgN/A
8:00 AM43 °FPartly sunny.No wind93%30.21 "HgN/A
7:00 AM39 °FScattered clouds.No wind93%30.18 "HgN/A
6:00 AM39 °FPassing clouds.No wind93%30.18 "HgN/A
5:00 AM41 °FPassing clouds.3 mph87%30.15 "HgN/A
4:00 AM41 °FPassing clouds.No wind87%30.15 "HgN/A
3:00 AM41 °FPassing clouds.6 mph93%30.15 "HgN/A
2:00 AM41 °FPassing clouds.6 mph93%30.18 "HgN/A
1:00 AM41 °FPassing clouds.No wind93%30.15 "HgN/A
12:00 AM43 °FPassing clouds.No wind93%30.15 "HgN/A
11:00 PM
Dec 20
45 °FPassing clouds.No wind93%30.12 "HgN/A
10:00 PM45 °FPassing clouds.No wind93%30.09 "HgN/A
Weather by CustomWeather, © 2014

See weather overviewHow to use our weather pages